Simultaneous Nadir Overpasses (SNOs) Predictions

Prediction of SNOs between GOES-16 and METOP-C Satellite Orbit:

Table of predicted SNOs for the next 14.0 days since TLE Epoch: 8/3/2024
Index Date Time (GOES-16) GOES-16 Lat,Lon METOP-C Lat,Lon Distance(km) Time Diff (sec)
1 08/04/2024 14:31:08 -0.01, -75.21 -0.08, -74.80 45.59 80
2 08/06/2024 02:47:29 0.02, -75.21 -0.93, -79.40 477.71 80
3 08/07/2024 02:29:30 0.02, -75.22 0.20, -74.41 92.40 80
4 08/08/2024 14:45:44 -0.03, -75.25 0.81, -78.98 425.12 80
5 08/09/2024 14:27:45 -0.03, -75.26 -0.32, -73.99 145.45 80
6 08/11/2024 02:44:06 0.03, -75.28 -0.72, -78.58 376.22 80
7 08/12/2024 02:26:07 0.02, -75.29 0.42, -73.59 194.62 80
8 08/13/2024 14:42:20 -0.02, -75.32 0.59, -78.15 322.18 80
9 08/14/2024 14:24:21 -0.02, -75.34 -0.50, -73.15 248.70 80
10 08/16/2024 02:40:41 0.02, -75.35 -0.52, -77.74 272.67 80
11 08/17/2024 02:20:03 0.02, -75.37 0.63, -72.76 298.40 80
